Regional Weather Roundup
Issued by NWS

Home | Current Version | Previous Version | Text Only | Print | Product List | Glossary On
Versions: 1 2 3 4 5 6 7 8 9 10 11 12 13 14 15 16 17 18 19 20 21 22 23 24 25 26 27 28 29 30 31 32 33 34 35 36 37 38 39 40 41 42 43 44 45 46 47 48 49 50
757
ASUS43 KTOP 291308
RWRKS

WEATHER ROUNDUP FOR KANSAS
NATIONAL WEATHER SERVICE GOODLAND KS
800 AM CDT THU SEP 29 2016

NOTE:  "FAIR" INDICATES FEW OR NO CLOUDS BELOW 12,000 FEET WITH NO
SIGNIFICANT WEATHER AND/OR OBSTRUCTIONS TO VISIBILITY.

KSZ001>006-013>018-027>032-041>047-291400-
NORTHWEST KANSAS

CITY           SKY/WX    TMP DP  RH WIND       PRES   REMARKS
GOODLAND       CLEAR     40  37  89 S7        30.40R
HAYS           CLEAR     43  32  65 N5        30.43R
HILL CITY      CLOUDY    39  37  92 CALM      30.44R
RUSSELL        CLEAR     43  42  97 NW7       30.42R
$$

KSZ061>065-074>080-084>089-291400-
SOUTHWEST KANSAS

CITY           SKY/WX    TMP DP  RH WIND       PRES   REMARKS
DODGE CITY     CLOUDY    41  38  89 N5        30.42R
ELKHART          N/A     45  34  66 SE7         N/A
GARDEN CITY    CLOUDY    44  38  79 CALM      30.41R
GREAT BEND     CLOUDY    43  34  70 NW5       30.43R
LIBERAL        CLEAR     45  32  61 W3        30.42R
PRATT          CLOUDY    42  40  91 NW5       30.42R
$$

KSZ066>073-081>083-090>101-291400-
SOUTHEAST KANSAS

CITY           SKY/WX    TMP DP  RH WIND       PRES   REMARKS
CHANUTE        CLEAR     50  47  89 NW5       30.35R
COFFEYVILLE    CLEAR     50  48  93 N7        30.34R
HUTCHINSON     CLEAR     48  45  89 N6        30.41R
MEDICINE LODGE   N/A     45  43  93 N3        30.41R
NEWTON           N/A     46  45  96 NW5       30.40R
PARSONS        CLEAR     48  46  93 N5        30.35R
WICHITA INTL   PTCLDY    50  46  86 N8        30.39R
WICHITA JABRA  CLEAR     48  46  93 N7        30.38R
WICHITA MCCONL CLEAR     49  46  88 N6        30.38R
WINFIELD       CLEAR     47  45  93 N5        30.38R
$$

KSZ007>012-019>026-033>040-048>060-102>105-291400-
NORTHEAST KANSAS

CITY           SKY/WX    TMP DP  RH WIND       PRES   REMARKS
CONCORDIA      CLOUDY    44  44 100 W6        30.43R
EMPORIA        CLEAR     47  46  97 NW6       30.38R
LAWRENCE       CLEAR     49  48  97 W8        30.36R
MANHATTAN      CLEAR     46  44  93 CALM      30.41R
MARYSVILLE     CLEAR     43  43 100 N5        30.41R
OLATHE IND     CLEAR     48  47  96 NW8       30.35S
OLATHE EXE     CLEAR     50  47  89 N7        30.35R
SALINA         CLEAR     47  44  90 NW7       30.42R
TOPEKA BILLARD CLEAR     51  47  86 NW5       30.38R
TOPEKA FORBES  CLEAR     49  47  93 MISG      30.38R
$$




USA.gov is the U.S. government's official web portal to all federal, state and local government web resources and services.